Location: Niverville
(49.6028°N, 97.0419°W)
Time: 02:54:35
(UTC-05:00)

Amateur Radio Satellites - All Passes

Search period start: 03 July 2015 02:24
Search period end: 04 July 2015 02:24
Location: Niverville, 49.6028°N, 97.0419°W

Satellite Date Start Highest point End Downlink Frequencies (MHz)
Time Altitude Azimuth
Cosmos 2491 03 Jul 02:26:53 02:35:12 45° 68° (ENE) 02:43:30 435.465 / 435.565
QB50P1 03 Jul 02:38:56 02:40:26 12° 303° (WNW) 02:41:46 145.935-145.965
BEESAT 03 Jul 02:43:29 02:48:09 52° 260° (W) 02:52:51 436.000
KKS-1 03 Jul 02:49:10 02:53:19 39° 68° (ENE) 02:57:29 437.445
PCSat 03 Jul 02:49:26 02:54:12 31° 247° (WSW) 02:58:53 145.827
SO-50 03 Jul 02:58:19 03:03:09 50° 237° (WSW) 03:07:52 436.795
RS-15 03 Jul 02:58:21 03:08:16 44° 112° (ESE) 03:18:40 29.354- 29.394
SWISSCUBE 03 Jul 02:59:12 03:03:36 35° 264° (W) 03:08:01 437.505
ITUPSAT 1 03 Jul 03:03:38 03:08:03 36° 264° (W) 03:12:29 437.325
YUBILEINY 03 Jul 03:08:38 03:15:28 28° 81° (E) 03:22:33 435.215
AIST 1 03 Jul 03:21:00 03:25:19 53° 76° (ENE) 03:29:35
Gurwin Techsat 1B 03 Jul 03:25:54 03:30:47 36° 95° (E) 03:35:42 435.225
JAS-2 03 Jul 03:33:22 03:37:33 18° 86° (E) 03:42:19 435.910
Oscar 19 03 Jul 03:34:20 03:39:27 68° 289° (WNW) 03:44:32 437.125/150
ITAMSAT 1 03 Jul 03:42:00 03:47:03 46° 98° (E) 03:52:04 435.822/435.867
STARS 03 Jul 03:45:13 03:49:38 85° 74° (ENE) 03:54:03 437.465
AO-7 03 Jul 03:55:17 04:00:10 17° 83° (E) 04:05:28 29.400- 29.500
Cosmos 2491 03 Jul 04:23:55 04:32:17 51° 271° (W) 04:40:31 435.465 / 435.565
KKS-1 03 Jul 04:26:16 04:30:05 27° 267° (W) 04:33:50 437.445
MOZHAYETS 4 03 Jul 04:30:32 04:34:53 45° 69° (ENE) 04:39:18
CUBESAT XI-V 03 Jul 04:56:22 04:57:27 11° 54° (NE) 04:58:45 437.345
AIST 1 03 Jul 04:59:36 05:02:36 18° 274° (W) 05:05:28
YUBILEINY 03 Jul 05:02:50 05:11:32 77° 282° (WNW) 05:20:18 435.215
Gurwin Techsat 1B 03 Jul 05:05:54 05:10:49 38° 295° (WNW) 05:15:42 435.225
RS-15 03 Jul 05:09:15 05:20:12 70° 318° (NW) 05:31:39 29.354- 29.394
HORYU 2 03 Jul 05:12:52 05:17:15 53° 100° (E) 05:21:38 437.375
Oscar 19 03 Jul 05:15:36 05:17:59 13° 307° (NW) 05:20:09 437.125/150
JAS-2 03 Jul 05:17:05 05:23:29 85° 105° (ESE) 05:30:42 435.910
ITAMSAT 1 03 Jul 05:21:51 05:26:24 30° 298° (WNW) 05:30:53 435.822/435.867
STARS 03 Jul 05:24:53 05:26:47 12° 274° (W) 05:28:28 437.465
AO-7 03 Jul 05:46:17 05:54:42 72° 106° (ESE) 06:03:03 29.400- 29.500
PRISM 03 Jul 05:51:52 05:53:01 11° 56° (NE) 05:54:21 437.425
MOZHAYETS 4 03 Jul 06:08:33 06:12:20 24° 268° (W) 06:16:05
Cosmos 2491 03 Jul 06:25:25 06:27:06 10° 293° (WNW) 06:28:09 435.465 / 435.565
CUBESAT XI-V 03 Jul 06:29:23 06:34:02 63° 73° (ENE) 06:38:45 437.345
Cosmos 2504 03 Jul 06:32:01 06:38:54 53° 92° (E) 06:45:52 435.465 / 435.565
Cubesat XI-IV 03 Jul 06:39:47 06:43:17 18° 87° (E) 06:46:56 437.490
STRAND 1 03 Jul 06:46:28 06:51:14 40° 66° (ENE) 06:56:05 437.568
HORYU 2 03 Jul 06:50:10 06:53:35 22° 298° (WNW) 06:56:57 437.375
JAS-2 03 Jul 07:03:13 07:08:05 24° 302° (WNW) 07:13:13 435.910
YUBILEINY 03 Jul 07:03:47 07:10:12 21° 308° (NW) 07:16:21 435.215
PRISM 03 Jul 07:23:35 07:27:46 77° 73° (ENE) 07:31:59 437.425
RS-15 03 Jul 07:24:38 07:34:56 39° 349° (N) 07:45:39 29.354- 29.394
AO-7 03 Jul 07:39:37 07:47:01 36° 307° (NW) 07:54:16 29.400- 29.500
CUTE-I 03 Jul 07:44:57 07:50:16 58° 100° (E) 07:55:33 437.470
CUSAT 1 03 Jul 07:46:52 07:51:03 20° 92° (E) 07:54:45 437.405
GONETS M04 03 Jul 07:50:39 07:52:24 11° 68° (ENE) 07:54:48
AUBIESAT-1 03 Jul 08:03:25 08:06:12 25° 60° (ENE) 08:09:09 437.475
BRITE-PL 03 Jul 08:04:20 08:04:37 10° 82° (E) 08:05:09 437.365/2234.400
CUBESAT XI-V 03 Jul 08:08:38 08:11:58 18° 272° (W) 08:15:11 437.345
Cubesat XI-IV 03 Jul 08:18:41 08:24:06 78° 288° (WNW) 08:29:28 437.490
BEESAT 3 03 Jul 08:21:39 08:25:17 32° 119° (ESE) 08:28:59 437.485
STRAND 1 03 Jul 08:25:54 08:30:33 33° 265° (W) 08:35:11 437.568
Cosmos 2504 03 Jul 08:26:09 08:32:40 35° 294° (WNW) 08:39:10 435.465 / 435.565
BEESAT 2 03 Jul 08:31:42 08:35:22 32° 119° (ESE) 08:39:06 435.950
M-CUBED/EXP-1 PRIME 03 Jul 08:35:41 08:38:58 66° 68° (ENE) 08:42:26 437.505
DANDE 03 Jul 08:38:02 08:44:34 41° 96° (E) 08:49:43 436.750
O/OREOS (USA 219) 03 Jul 08:53:45 08:58:11 73° 114° (ESE) 09:02:40 437.305
PRISM 03 Jul 09:01:51 09:03:49 13° 273° (W) 09:05:36 437.425
ISS 03 Jul 09:17:19 09:19:19 16° 139° (SE) 09:21:23 145.825
GOMX 1 03 Jul 09:22:30 09:26:28 36° 96° (E) 09:30:19 467.674
UNISAT 6 03 Jul 09:22:31 09:23:02 10° 55° (NE) 09:23:44 437.425
CUTE-I 03 Jul 09:25:36 09:30:02 26° 300° (WNW) 09:34:22 437.470
CUSAT 1 03 Jul 09:27:12 09:33:32 69° 283° (WNW) 09:38:18 437.405
CINEMA 3 03 Jul 09:33:20 09:35:39 15° 88° (E) 09:38:08 145.822/145.860
AO-7 03 Jul 09:34:06 09:37:27 13° 332° (NNW) 09:40:32 29.400- 29.500
COMPASS 1 03 Jul 09:34:28 09:37:31 20° 90° (E) 09:40:41 437.405
HO-68 03 Jul 09:35:12 09:41:46 38° 95° (E) 09:48:23 435.675
AUBIESAT-1 03 Jul 09:38:05 09:40:58 26° 259° (W) 09:43:55 437.475
GONETS M04 03 Jul 09:38:56 09:47:18 52° 90° (E) 09:55:41
CUTE 1.7 + AOD 2 03 Jul 09:39:20 09:43:11 32° 95° (E) 09:47:03 437.475
BRITE-PL 03 Jul 09:39:38 09:44:07 88° 103° (ESE) 09:48:20 437.365/2234.400
RS-15 03 Jul 09:39:57 09:50:43 45° 22° (NNE) 10:02:01 29.354- 29.394
AIST 2 03 Jul 09:40:21 09:44:21 42° 122° (ESE) 09:48:25 435.215
CANX-2 03 Jul 09:42:22 09:46:22 37° 96° (E) 09:50:23 2200.000
VERMONT LUNAR 03 Jul 09:50:19 09:51:33 12° 165° (SSE) 09:52:50 437.305
BEESAT 3 03 Jul 09:59:19 10:03:11 39° 319° (NW) 10:07:04 437.485
Cubesat XI-IV 03 Jul 10:00:15 10:03:27 16° 306° (NW) 10:06:28 437.490
ANTELSAT 03 Jul 10:03:44 10:07:07 24° 64° (ENE) 10:10:34 437.575/2403.000
BEESAT 2 03 Jul 10:09:29 10:13:23 39° 319° (NW) 10:17:18 435.950
DOVE 4 03 Jul 10:13:21 10:17:33 76° 101° (E) 10:21:42 437.250
TIGRISAT 03 Jul 10:16:23 10:20:04 29° 66° (ENE) 10:23:47 435.000
DANDE 03 Jul 10:21:16 10:27:46 40° 288° (WNW) 10:32:47 436.750
QB50P1 03 Jul 10:23:39 10:26:26 18° 61° (ENE) 10:29:20 145.935-145.965
SEEDS 03 Jul 10:29:41 10:33:58 84° 103° (ESE) 10:38:15 437.485
CUBEBUG 2 03 Jul 10:30:16 10:33:52 27° 94° (E) 10:37:33 437.445
O/OREOS (USA 219) 03 Jul 10:34:54 10:38:10 19° 316° (NW) 10:41:22 437.305
NANOSAT C BR1 03 Jul 10:37:48 10:41:07 23° 64° (ENE) 10:44:29 145.865
ZACube-1 03 Jul 10:38:51 10:42:07 22° 92° (E) 10:45:29 437.345
AAUSAT CUBESAT 2 03 Jul 10:44:20 10:48:34 83° 103° (ESE) 10:52:48 437.432
DUCHIFAT 1 03 Jul 10:45:01 10:48:31 26° 65° (ENE) 10:52:03 145.980
POLYITAN 1 03 Jul 10:48:09 10:51:47 29° 66° (ENE) 10:55:28 437.675
Cosmos 2499 03 Jul 10:49:24 10:55:06 28° 84° (E) 11:01:03 435.465 / 435.565
Oscar 11 03 Jul 10:50:18 10:54:30 45° 98° (E) 10:58:42 145.826/435.025
ISS 03 Jul 10:52:03 10:55:17 68° 157° (SSE) 10:58:31 145.825
UNISAT 6 03 Jul 10:54:50 10:59:06 70° 73° (ENE) 11:03:22 437.425
GOMX 1 03 Jul 11:00:55 11:04:31 26° 295° (WNW) 11:07:56 467.674
BUGSAT 1 03 Jul 11:07:53 11:11:34 30° 66° (ENE) 11:15:15 437.445
HUMSAT D 03 Jul 11:09:08 11:12:12 20° 91° (E) 11:15:24 437.325/437.525
CINEMA 3 03 Jul 11:09:14 11:13:21 62° 287° (WNW) 11:17:29 145.822/145.860
COMPASS 1 03 Jul 11:09:23 11:13:29 48° 289° (WNW) 11:17:34 437.405
DELFI C3 03 Jul 11:09:27 11:13:27 51° 99° (E) 11:17:25 145.870
CUSAT 1 03 Jul 11:14:38 11:16:42 12° 300° (WNW) 11:18:21 437.405
FUNcube-1 03 Jul 11:15:08 11:19:12 48° 99° (E) 11:23:20 145.935
CUTE 1.7 + AOD 2 03 Jul 11:15:17 11:19:04 31° 293° (WNW) 11:22:49 437.475
QB50P2 03 Jul 11:17:27 11:21:36 54° 71° (ENE) 11:25:47 145.880/145.840
POPSAT HIP 1 03 Jul 11:18:33 11:22:42 54° 71° (ENE) 11:26:50 437.405
CANX-2 03 Jul 11:18:34 11:22:11 27° 295° (WNW) 11:25:45 2200.000
AIST 2 03 Jul 11:19:05 11:23:02 34° 321° (NW) 11:26:57 435.215
BRITE-PL 03 Jul 11:19:48 11:21:59 13° 304° (NW) 11:23:57 437.365/2234.400
HO-68 03 Jul 11:22:51 11:29:46 53° 296° (WNW) 11:36:39 435.675
UWE-3 03 Jul 11:23:55 11:28:07 77° 103° (ESE) 11:32:23 435.000/436.395/437.385
50 SAT 03 Jul 11:24:13 11:26:23 15° 89° (E) 11:28:42 437.505
PHONESAT 2.4 03 Jul 11:24:41 11:26:31 14° 165° (SSE) 11:28:24 2401.200-2431.200
VERMONT LUNAR 03 Jul 11:25:44 11:27:46 16° 182° (S) 11:29:49 437.305
ESTCUBE 1 03 Jul 11:25:58 11:26:29 10° 83° (E) 11:27:16 437.505/2401.250
GONETS M04 03 Jul 11:36:05 11:44:24 44° 293° (WNW) 11:52:39
ANTELSAT 03 Jul 11:39:39 11:43:44 42° 262° (W) 11:47:49 437.575/2403.000
BEESAT 3 03 Jul 11:40:13 11:42:14 13° 341° (NNW) 11:44:12 437.485
VELOX 1 03 Jul 11:46:13 11:49:43 23° 92° (E) 11:53:16 145.980
BEESAT 2 03 Jul 11:50:28 11:52:32 13° 341° (NNW) 11:54:33 435.950
DOVE 4 03 Jul 11:52:34 11:54:50 14° 301° (WNW) 11:56:57 437.250
TIGRISAT 03 Jul 11:52:53 11:56:47 33° 264° (W) 12:00:39 435.000
RS-15 03 Jul 11:53:06 12:04:45 88° 50° (NE) 12:16:56 29.354- 29.394
QB50P1 03 Jul 11:57:42 12:01:55 61° 259° (WSW) 12:06:08 145.935-145.965
DX 1 03 Jul 12:00:18 12:04:34 52° 100° (E) 12:08:49 434.975-435.025
CUBEBUG 2 03 Jul 12:06:50 12:10:38 33° 292° (WNW) 12:14:26 437.445
SEEDS 03 Jul 12:07:00 12:09:13 14° 301° (WNW) 12:11:18 437.485
NANOSAT C BR1 03 Jul 12:12:40 12:16:44 44° 262° (W) 12:20:48 145.865
ZACube-1 03 Jul 12:14:43 12:18:42 42° 290° (WNW) 12:22:42 437.345
DUCHIFAT 1 03 Jul 12:20:13 12:24:11 38° 263° (W) 12:28:09 145.980
AAUSAT CUBESAT 2 03 Jul 12:21:27 12:23:38 14° 301° (WNW) 12:25:40 437.432
UKube-1 03 Jul 12:23:12 12:27:34 81° 102° (ESE) 12:31:54 .
POLYITAN 1 03 Jul 12:23:44 12:27:37 34° 264° (W) 12:31:29 437.675
Oscar 11 03 Jul 12:26:59 12:30:27 23° 296° (WNW) 12:33:50 145.826/435.025
SPROUT 03 Jul 12:27:38 12:28:43 11° 85° (E) 12:30:01 437.525
ISS 03 Jul 12:28:33 12:31:45 58° 356° (N) 12:34:59 145.825
AISAT 03 Jul 12:32:20 12:36:45 65° 102° (ESE) 12:41:08 437.250
UNISAT 6 03 Jul 12:34:06 12:36:27 14° 273° (W) 12:38:38 437.425
Cosmos 2499 03 Jul 12:40:47 12:47:46 62° 285° (WNW) 12:54:55 435.465 / 435.565
BUGSAT 1 03 Jul 12:43:09 12:46:59 32° 264° (W) 12:50:46 437.445
HUMSAT D 03 Jul 12:44:13 12:48:12 45° 290° (WNW) 12:52:11 437.325/437.525
DELFI C3 03 Jul 12:45:16 12:48:13 19° 297° (WNW) 12:51:04 145.870
FUNcube-1 03 Jul 12:52:06 12:55:17 21° 297° (WNW) 12:58:25 145.935
CUBEBUG 1 03 Jul 12:54:22 12:58:44 61° 101° (E) 13:03:02 437.445
QB50P2 03 Jul 12:54:54 12:57:52 18° 270° (W) 13:00:43 145.880/145.840
POPSAT HIP 1 03 Jul 12:55:57 12:58:55 18° 270° (W) 13:01:47 437.405
50 SAT 03 Jul 12:57:35 13:01:25 57° 288° (WNW) 13:05:15 437.505
ESTCUBE 1 03 Jul 12:59:39 13:04:14 79° 103° (ESE) 13:08:46 437.505/2401.250
AIST 2 03 Jul 13:00:49 13:02:49 13° 344° (NNW) 13:04:47 435.215
PHONESAT 2.4 03 Jul 13:01:21 13:03:49 18° 182° (S) 13:06:17 2401.200-2431.200
UWE-3 03 Jul 13:01:51 13:04:11 14° 300° (WNW) 13:06:23 435.000/436.395/437.385
VERMONT LUNAR 03 Jul 13:03:26 13:03:58 10° 198° (SSW) 13:04:28 437.305
YUBILEINY 03 Jul 13:11:36 13:17:19 19° 49° (NE) 13:23:24 435.215
AO-7 03 Jul 13:11:39 13:15:16 14° 30° (NNE) 13:19:09 29.400- 29.500
HO-68 03 Jul 13:12:14 13:16:06 15° 318° (NW) 13:19:43 435.675
TISAT 1 03 Jul 13:12:47 13:15:55 21° 91° (E) 13:19:08 437.305
Gurwin Techsat 1B 03 Jul 13:14:08 13:17:18 17° 55° (NE) 13:20:37 435.225
Oscar 19 03 Jul 13:16:41 13:21:30 43° 67° (ENE) 13:26:22 437.125/150
VELOX 1 03 Jul 13:22:15 13:26:31 45° 291° (WNW) 13:30:41 145.980
ITAMSAT 1 03 Jul 13:26:57 13:30:34 20° 57° (ENE) 13:34:20 435.822/435.867
DX 1 03 Jul 13:37:12 13:40:31 21° 299° (WNW) 13:43:44 434.975-435.025
GONETS M04 03 Jul 13:41:09 13:44:25 12° 321° (NW) 13:47:15
JAS-2 03 Jul 13:54:38 13:55:58 11° 47° (NE) 13:57:33 435.910
UKube-1 03 Jul 14:00:42 14:03:10 15° 302° (WNW) 14:05:30 .
SPROUT 03 Jul 14:01:13 14:05:32 89° 285° (WNW) 14:09:48 437.525
ISS 03 Jul 14:05:04 14:08:19 84° 15° (NNE) 14:11:35 145.825
RS-15 03 Jul 14:06:15 14:16:09 32° 253° (WSW) 14:26:00 29.354- 29.394
AISAT 03 Jul 14:09:52 14:12:55 18° 300° (WNW) 14:15:51 437.250
CUBEBUG 1 03 Jul 14:31:37 14:34:41 19° 300° (WNW) 14:37:39 437.445
ESTCUBE 1 03 Jul 14:37:44 14:40:34 16° 302° (WNW) 14:43:15 437.505/2401.250
Cosmos 2499 03 Jul 14:39:07 14:42:52 14° 312° (NW) 14:46:20 435.465 / 435.565
BEESAT 03 Jul 14:39:25 14:43:36 29° 94° (E) 14:47:48 436.000
PHONESAT 2.4 03 Jul 14:39:40 14:41:05 12° 198° (SSW) 14:42:28 2401.200-2431.200
HORYU 2 03 Jul 14:41:43 14:43:36 13° 56° (NE) 14:45:39 437.375
AIST 2 03 Jul 14:42:00 14:43:10 11° 8° (N) 14:44:24 435.215
TISAT 1 03 Jul 14:47:55 14:51:56 45° 290° (WNW) 14:55:56 437.305
Gurwin Techsat 1B 03 Jul 14:51:15 14:56:34 84° 76° (ENE) 15:01:57 435.225
SWISSCUBE 03 Jul 14:54:36 14:59:11 43° 98° (E) 15:03:46 437.505
Oscar 19 03 Jul 14:56:28 15:01:01 31° 266° (W) 15:05:32 437.125/150
AO-7 03 Jul 14:58:23 15:05:52 39° 54° (NE) 15:13:27 29.400- 29.500
BEESAT 3 03 Jul 14:58:28 15:01:25 19° 29° (NNE) 15:04:23 437.485
ITUPSAT 1 03 Jul 14:59:19 15:03:55 43° 98° (E) 15:08:31 437.325
ITAMSAT 1 03 Jul 15:04:19 15:09:33 78° 255° (WSW) 15:14:50 435.822/435.867
YUBILEINY 03 Jul 15:07:29 15:16:14 69° 76° (ENE) 15:25:00 435.215
BEESAT 2 03 Jul 15:08:57 15:11:57 19° 28° (NNE) 15:14:58 435.950
STARS 03 Jul 15:32:45 15:34:05 11° 85° (E) 15:35:39 437.465
Cosmos 2491 03 Jul 15:33:43 15:41:48 43° 87° (E) 15:49:58 435.465 / 435.565
JAS-2 03 Jul 15:34:52 15:39:55 57° 69° (ENE) 15:45:19 435.910
SPROUT 03 Jul 15:39:00 15:41:00 13° 303° (WNW) 15:42:52 437.525
ISS 03 Jul 15:41:43 15:44:29 26° 215° (SW) 15:47:14 145.825
PCSat 03 Jul 15:53:33 15:57:02 18° 107° (ESE) 16:00:42 145.827
AIST 1 03 Jul 15:55:25 15:59:00 25° 89° (E) 16:02:41
KKS-1 03 Jul 16:12:07 16:16:21 42° 98° (E) 16:20:34 437.445
HORYU 2 03 Jul 16:15:11 16:19:36 83° 74° (ENE) 16:24:03 437.375
BEESAT 03 Jul 16:17:03 16:21:34 40° 293° (WNW) 16:26:02 436.000
Cosmos 2504 03 Jul 16:18:00 16:24:10 27° 61° (ENE) 16:30:49 435.465 / 435.565
AIST 2 03 Jul 16:19:50 16:23:14 23° 32° (NNE) 16:26:38 435.215
SWISSCUBE 03 Jul 16:32:45 16:36:54 29° 297° (WNW) 16:40:59 437.505
Gurwin Techsat 1B 03 Jul 16:34:01 16:37:21 16° 274° (W) 16:40:29 435.225
BEESAT 3 03 Jul 16:35:53 16:39:59 82° 49° (NE) 16:44:02 437.485
ITUPSAT 1 03 Jul 16:37:30 16:41:40 29° 296° (WNW) 16:45:46 437.325
BEESAT 2 03 Jul 16:46:30 16:50:38 83° 50° (NE) 16:54:42 435.950
ITAMSAT 1 03 Jul 16:47:48 16:50:03 12° 276° (W) 16:52:02 435.822/435.867
AO-7 03 Jul 16:50:04 16:58:21 64° 256° (WSW) 17:06:42 29.400- 29.500
YUBILEINY 03 Jul 17:05:03 17:12:30 32° 278° (W) 17:19:47 435.215
STARS 03 Jul 17:06:51 17:11:16 89° 299° (WNW) 17:15:39 437.465
SO-50 03 Jul 17:17:35 17:21:02 21° 113° (ESE) 17:24:40 436.795
O/OREOS (USA 219) 03 Jul 17:20:14 17:24:32 41° 55° (NE) 17:28:51 437.305
JAS-2 03 Jul 17:21:33 17:25:38 22° 271° (W) 17:29:46 435.910
Cosmos 2491 03 Jul 17:30:00 17:38:36 53° 289° (WNW) 17:47:10 435.465 / 435.565
AIST 1 03 Jul 17:32:24 17:36:31 37° 288° (WNW) 17:40:39
CUTE-I 03 Jul 17:32:41 17:36:59 25° 60° (ENE) 17:41:22 437.470
PCSat 03 Jul 17:34:24 17:39:50 85° 303° (WNW) 17:45:19 145.827
KKS-1 03 Jul 17:49:08 17:52:49 25° 297° (WNW) 17:56:24 437.445
HORYU 2 03 Jul 17:54:55 17:56:56 12° 274° (W) 17:58:45 437.375
MOZHAYETS 4 03 Jul 17:58:01 18:02:38 59° 100° (E) 18:07:15
AIST 2 03 Jul 17:58:02 18:02:16 76° 234° (SW) 18:06:26 435.215
Cubesat XI-IV 03 Jul 18:05:36 18:10:38 44° 66° (ENE) 18:15:45 437.490
Cosmos 2504 03 Jul 18:10:50 18:18:27 78° 263° (W) 18:26:37 435.465 / 435.565
BEESAT 3 03 Jul 18:15:17 18:17:24 14° 248° (WSW) 18:19:22 437.485
CUBESAT XI-V 03 Jul 18:23:48 18:25:26 12° 84° (E) 18:27:18 437.345
HO-68 03 Jul 18:25:54 18:28:49 13° 40° (NE) 18:31:59 435.675
BEESAT 2 03 Jul 18:26:02 18:28:10 14° 248° (WSW) 18:30:07 435.950
STARS 03 Jul 18:44:55 18:47:06 13° 303° (WNW) 18:49:08 437.465
AO-7 03 Jul 18:48:36 18:53:07 15° 279° (W) 18:57:07 29.400- 29.500
SO-50 03 Jul 18:56:18 19:01:06 73° 313° (NW) 19:06:03 436.795
GOMX 1 03 Jul 18:59:52 19:01:39 12° 57° (ENE) 19:03:37 467.674
O/OREOS (USA 219) 03 Jul 18:59:57 19:03:48 27° 254° (WSW) 19:07:37 437.305
CUTE-I 03 Jul 19:11:24 19:16:43 60° 259° (WSW) 19:22:04 437.470
DANDE 03 Jul 19:16:02 19:18:28 20° 65° (ENE) 19:20:40 436.750
BRITE-PL 03 Jul 19:16:36 19:20:57 26° 64° (ENE) 19:25:09 437.365/2234.400
PCSat 03 Jul 19:19:41 19:24:04 24° 328° (NNW) 19:28:24 145.827
Cosmos 2491 03 Jul 19:33:30 19:38:13 15° 317° (NW) 19:42:31 435.465 / 435.565
MOZHAYETS 4 03 Jul 19:36:01 19:39:30 21° 299° (WNW) 19:42:54
AIST 2 03 Jul 19:39:19 19:40:08 10° 251° (WSW) 19:40:45 435.215
GONETS M04 03 Jul 19:43:28 19:51:07 33° 62° (ENE) 19:58:51
Cubesat XI-IV 03 Jul 19:46:05 19:50:54 32° 266° (W) 19:55:42 437.490
DOVE 4 03 Jul 19:46:58 19:50:10 19° 62° (ENE) 19:53:24 437.250
SEEDS 03 Jul 19:52:35 19:54:39 14° 59° (ENE) 19:56:53 437.485
CUBESAT XI-V 03 Jul 19:58:58 20:03:43 86° 104° (ESE) 20:08:23 437.345
CUSAT 1 03 Jul 20:01:02 20:03:47 50° 261° (W) 20:06:18 437.405
Cosmos 2504 03 Jul 20:06:00 20:10:51 18° 282° (WNW) 20:15:30 435.465 / 435.565
AAUSAT CUBESAT 2 03 Jul 20:06:15 20:08:09 13° 59° (ENE) 20:10:12 437.432
HO-68 03 Jul 20:08:16 20:14:57 46° 62° (ENE) 20:21:42 435.675
COMPASS 1 03 Jul 20:29:53 20:33:12 24° 64° (ENE) 20:36:37 437.405
STRAND 1 03 Jul 20:31:12 20:36:21 61° 102° (ESE) 20:41:26 437.568
Cosmos 2499 03 Jul 20:33:21 20:37:38 16° 51° (NE) 20:42:24 435.465 / 435.565
GOMX 1 03 Jul 20:34:02 20:39:07 69° 74° (ENE) 20:43:54 467.674
CUTE 1.7 + AOD 2 03 Jul 20:36:17 20:40:12 39° 69° (ENE) 20:44:11 437.475
PRISM 03 Jul 20:36:50 20:41:04 68° 102° (ESE) 20:45:15 437.425
SO-50 03 Jul 20:38:39 20:42:30 22° 335° (NNW) 20:46:21 436.795
CINEMA 3 03 Jul 20:38:54 20:42:30 25° 65° (ENE) 20:46:05 145.822/145.860
CANX-2 03 Jul 20:39:22 20:43:24 46° 70° (ENE) 20:47:29 2200.000
UWE-3 03 Jul 20:51:16 20:53:26 14° 60° (ENE) 20:55:44 435.000/436.395/437.385
BRITE-PL 03 Jul 20:53:52 20:59:14 56° 260° (W) 21:04:15 437.365/2234.400
DANDE 03 Jul 20:59:35 21:01:28 15° 272° (W) 21:03:07 436.750
PCSat 03 Jul 21:07:09 21:09:31 13° 354° (N) 21:11:50 145.827
AUBIESAT-1 03 Jul 21:14:20 21:15:57 12° 94° (E) 21:17:49 437.475
DOVE 4 03 Jul 21:22:45 21:27:35 67° 258° (WSW) 21:32:09 437.250
SEEDS 03 Jul 21:25:43 21:29:54 81° 257° (WSW) 21:34:08 437.485
DX 1 03 Jul 21:26:57 21:28:37 12° 56° (NE) 21:30:28 434.975-435.025
CUBEBUG 2 03 Jul 21:32:40 21:36:39 40° 69° (ENE) 21:40:36 437.445
CUBESAT XI-V 03 Jul 21:37:45 21:40:33 15° 302° (WNW) 21:43:11 437.345
AAUSAT CUBESAT 2 03 Jul 21:39:03 21:43:11 84° 256° (WSW) 21:47:23 437.432
ZACube-1 03 Jul 21:39:03 21:42:41 30° 67° (ENE) 21:46:22 437.345
GONETS M04 03 Jul 21:40:08 21:48:46 69° 266° (W) 21:57:20
M-CUBED/EXP-1 PRIME 03 Jul 21:46:14 21:49:49 28° 101° (ESE) 21:53:39 437.505
UKube-1 03 Jul 21:47:56 21:50:41 17° 59° (ENE) 21:53:33 .
Oscar 11 03 Jul 21:49:05 21:53:19 61° 72° (ENE) 21:57:35 145.826/435.025
HO-68 03 Jul 21:55:56 22:02:45 45° 262° (W) 22:09:33 435.675
AISAT 03 Jul 22:00:03 22:02:32 15° 58° (ENE) 22:05:08 437.250
DELFI C3 03 Jul 22:00:38 22:04:33 56° 72° (ENE) 22:08:31 145.870
COMPASS 1 03 Jul 22:04:46 22:08:42 40° 263° (W) 22:12:39 437.405
HUMSAT D 03 Jul 22:05:07 22:08:28 25° 65° (ENE) 22:11:54 437.325/437.525
STRAND 1 03 Jul 22:11:06 22:15:11 24° 300° (WNW) 22:19:09 437.568
50 SAT 03 Jul 22:12:48 22:15:10 16° 62° (ENE) 22:17:39 437.505
CUTE 1.7 + AOD 2 03 Jul 22:12:49 22:16:16 24° 268° (W) 22:19:42 437.475
PRISM 03 Jul 22:13:23 22:16:03 16° 301° (WNW) 22:18:36 437.425
GOMX 1 03 Jul 22:14:12 22:17:43 18° 271° (W) 22:20:57 467.674
FUNcube-1 03 Jul 22:15:00 22:19:09 65° 73° (ENE) 22:23:17 145.935
CINEMA 3 03 Jul 22:15:19 22:19:35 41° 262° (W) 22:23:41 145.822/145.860
CANX-2 03 Jul 22:16:23 22:19:36 20° 270° (W) 22:22:45 2200.000
CUBEBUG 1 03 Jul 22:21:03 22:23:06 13° 57° (ENE) 22:25:19 437.445
SO-50 03 Jul 22:22:07 22:24:46 14° 359° (N) 22:27:27 436.795
Cosmos 2499 03 Jul 22:24:59 22:32:37 63° 75° (ENE) 22:40:51 435.465 / 435.565
UWE-3 03 Jul 22:25:15 22:29:30 77° 257° (WSW) 22:33:42 435.000/436.395/437.385
ESTCUBE 1 03 Jul 22:28:28 22:31:28 18° 60° (ENE) 22:34:37 437.505/2401.250
UNISAT 6 03 Jul 22:44:44 22:45:32 11° 85° (E) 22:46:37 437.425
AUBIESAT-1 03 Jul 22:47:04 22:51:12 87° 296° (WNW) 22:55:38 437.475
VELOX 1 03 Jul 22:47:42 22:51:46 36° 67° (ENE) 22:55:52 145.980
PCSat 03 Jul 22:51:56 22:55:14 16° 20° (NNE) 22:58:37 145.827
DX 1 03 Jul 22:59:49 23:04:12 79° 74° (ENE) 23:08:37 434.975-435.025
CUBEBUG 2 03 Jul 23:10:02 23:13:31 23° 267° (W) 23:16:54 437.445
ZACube-1 03 Jul 23:15:17 23:19:03 31° 265° (W) 23:22:46 437.345
M-CUBED/EXP-1 PRIME 03 Jul 23:20:54 23:24:41 37° 297° (WNW) 23:28:42 437.505
UKube-1 03 Jul 23:22:02 23:26:23 68° 258° (WSW) 23:30:44 .
SPROUT 03 Jul 23:25:20 23:28:01 17° 60° (ENE) 23:30:50 437.525
ANTELSAT 03 Jul 23:26:56 23:30:40 27° 94° (E) 23:34:30 437.575/2403.000
Oscar 11 03 Jul 23:27:09 23:29:58 16° 272° (W) 23:32:38 145.826/435.025
AISAT 03 Jul 23:34:04 23:38:33 83° 256° (WSW) 23:43:03 437.250
DELFI C3 03 Jul 23:37:29 23:40:02 16° 271° (W) 23:42:28 145.870
GONETS M04 03 Jul 23:39:08 23:44:06 16° 287° (WNW) 23:48:35
QB50P1 03 Jul 23:39:28 23:42:02 16° 89° (E) 23:44:44 145.935-145.965
TIGRISAT 03 Jul 23:39:30 23:43:28 34° 96° (E) 23:47:32 435.000
HUMSAT D 03 Jul 23:40:18 23:44:06 36° 263° (W) 23:47:54 437.325/437.525
50 SAT 03 Jul 23:45:41 23:49:27 54° 259° (W) 23:53:14 437.505
NANOSAT C BR1 03 Jul 23:53:31 23:56:45 21° 92° (E) 00:00:02 145.865
FUNcube-1 03 Jul 23:53:36 23:55:59 14° 272° (W) 23:58:13 145.935
CUBEBUG 1 03 Jul 23:54:23 23:58:50 87° 75° (ENE) 00:03:18 437.445
DUCHIFAT 1 04 Jul 00:00:36 00:04:02 24° 93° (E) 00:07:31 145.980
SO-50 04 Jul 00:03:20 00:07:05 21° 23° (NNE) 00:10:53 436.795
ESTCUBE 1 04 Jul 00:03:22 00:07:54 68° 259° (WSW) 00:12:28 437.505/2401.250
POLYITAN 1 04 Jul 00:04:33 00:08:12 28° 94° (E) 00:11:52 437.675
TISAT 1 04 Jul 00:08:52 00:12:29 28° 66° (ENE) 00:16:09 437.305
Cosmos 2499 04 Jul 00:18:42 00:25:26 33° 274° (W) 00:32:27 435.465 / 435.565
UNISAT 6 04 Jul 00:18:42 00:23:05 86° 106° (ESE) 00:27:32 437.425
BUGSAT 1 04 Jul 00:20:56 00:24:22 26° 94° (E) 00:27:48 437.445
AUBIESAT-1 04 Jul 00:23:20 00:25:29 14° 306° (NW) 00:27:33 437.475
VELOX 1 04 Jul 00:24:25 00:28:23 29° 266° (W) 00:32:17 145.980
SWISSCUBE 04 Jul 00:30:35 00:32:53 14° 55° (NE) 00:35:22 437.505
QB50P2 04 Jul 00:34:04 00:38:15 56° 100° (E) 00:42:23 145.880/145.840
PCSat 04 Jul 00:34:57 00:40:07 43° 44° (NE) 00:45:18 145.827
POPSAT HIP 1 04 Jul 00:35:00 00:39:09 55° 100° (E) 00:43:17 437.405
ITUPSAT 1 04 Jul 00:35:30 00:37:50 14° 55° (NE) 00:40:21 437.325
DX 1 04 Jul 00:38:55 00:41:05 13° 273° (W) 00:43:04 434.975-435.025
SPROUT 04 Jul 00:59:22 01:03:40 68° 258° (WSW) 01:07:59 437.525
ANTELSAT 04 Jul 01:03:31 01:07:33 37° 292° (WNW) 01:11:37 437.575/2403.000
QB50P1 04 Jul 01:14:10 01:18:20 60° 288° (WNW) 01:22:28 145.935-145.965
AISAT 04 Jul 01:14:49 01:15:57 11° 276° (W) 01:16:49 437.250
TIGRISAT 04 Jul 01:16:24 01:20:11 29° 294° (WNW) 01:23:58 435.000
NANOSAT C BR1 04 Jul 01:28:48 01:32:49 43° 290° (WNW) 01:36:47 145.865
CUBEBUG 1 04 Jul 01:34:01 01:35:54 12° 275° (W) 01:37:35 437.445
DUCHIFAT 1 04 Jul 01:36:04 01:39:58 38° 292° (WNW) 01:43:50 145.980
Cosmos 2491 04 Jul 01:38:05 01:45:19 28° 58° (ENE) 01:52:40 435.465 / 435.565
POLYITAN 1 04 Jul 01:40:20 01:44:09 33° 293° (WNW) 01:47:56 437.675
KKS-1 04 Jul 01:41:53 01:42:48 11° 54° (NE) 01:43:54 437.445
SO-50 04 Jul 01:43:36 01:48:34 65° 46° (NE) 01:53:27 436.795
TISAT 1 04 Jul 01:44:17 01:48:11 34° 264° (W) 01:52:04 437.305
BEESAT 04 Jul 01:49:54 01:54:32 54° 70° (ENE) 01:59:15 436.000
BUGSAT 1 04 Jul 01:56:11 01:59:55 34° 293° (WNW) 02:03:33 437.445
UNISAT 6 04 Jul 01:57:00 01:59:20 14° 302° (WNW) 02:01:32 437.425
AIST 1 04 Jul 01:59:03 02:00:32 12° 59° (ENE) 02:02:11
SWISSCUBE 04 Jul 02:05:15 02:10:02 79° 73° (ENE) 02:14:52 437.505
ITUPSAT 1 04 Jul 02:10:14 02:15:01 80° 74° (ENE) 02:19:52 437.325
QB50P2 04 Jul 02:10:47 02:13:48 19° 298° (WNW) 02:16:42 145.880/145.840
POPSAT HIP 1 04 Jul 02:11:41 02:14:41 19° 298° (WNW) 02:17:36 437.405
